Weather History for Wallops Island, VA

Change the Weather History Date:

Monday, December 2, 2013

  Actual Average Record
Temperature  
Mean Temperature 42 °F 44 °F  
Max Temperature 54 °F 53 °F 66 °F (1991)
Min Temperature 29 °F 36 °F 23 °F (1999)
Degree Days  
Heating Degree Days 23    
Month to date heating degree days 46  
Since 1 July heating degree days 689  
Cooling Degree Days 0    
Month to date cooling degree days 0  
Year to date cooling degree days 1523  
Moisture  
Dew Point 36 °F    
Average Humidity 79    
Maximum Humidity 92    
Minimum Humidity 66    
Precipitation  
Precipitation 0.00 in 0.11 in 0.32 in (2007)
Month to date precipitation 0.00 0.22  
Year to date precipitation 37.34 37.63  
Sea Level Pressure  
Sea Level Pressure 29.93 in    
Wind  
Wind Speed 4 mph (ENE)    
Max Wind Speed 8 mph    
Max Gust Speed 19 mph    
Visibility 8 miles    
Events      
T = Trace of Precipitation, MM = Missing Value Source: NWS Daily Summary

Daily Weather History Graph

Daily Weather History Graph

Search for Another Location

Airport:

Trip Planner

Search our weather history database for the weather conditions in past years. The results will help you decide how hot, cold, wet, or windy it might be!

Date:

Astronomy

Dec. 02, 2013 Rise Set
Actual Time 7:00 AM EST 4:42 PM EST
Civil Twilight 6:31 AM EST 5:11 PM EST
Nautical Twilight 5:58 AM EST 5:44 PM EST
Astronomical Twilight 5:26 AM EST 6:15 PM EST
Moon 6:23 AM EST (12/2) 4:42 PM EST (12/2)
Length of Visible Light 10h 40m
Length of Day
9h 42m
Waning Crescent, 0% of the Moon is Illuminated
Dec 2
Waning Crescent
Dec 2
New
Dec 9
First Quarter
Dec 17
Full
Dec 25
Last Quarter

Hourly Weather History & Observations

Time (EST) Temp. Windchill Dew Point Humidity Pressure Visibility Wind Dir Wind Speed Gust Speed Precip Events Conditions
12:54 AM 30.0 °F - 26.1 °F 85% 30.01 in 9.0 mi Calm Calm - N/A   Clear
1:54 AM 32.0 °F - 28.0 °F 85% 30.01 in 10.0 mi Calm Calm - N/A   Clear
2:54 AM 30.9 °F - 27.0 °F 85% 30.00 in 9.0 mi Calm Calm - N/A   Clear
3:54 AM 28.9 °F - 25.0 °F 85% 29.98 in 8.0 mi Calm Calm - N/A   Clear
4:54 AM 30.9 °F - 26.1 °F 82% 29.97 in 8.0 mi Calm Calm - N/A   Clear
5:54 AM 30.9 °F - 27.0 °F 85% 29.98 in 8.0 mi Calm Calm - N/A   Clear
6:54 AM 28.9 °F - 26.1 °F 89% 29.98 in 8.0 mi Calm Calm - N/A   Clear
7:54 AM 34.0 °F 28.8 °F 30.9 °F 89% 29.98 in 5.0 mi East 5.8 mph - N/A   Clear
8:54 AM 44.1 °F 39.5 °F 39.9 °F 85% 29.98 in 8.0 mi East 8.1 mph - N/A   Partly Cloudy
9:54 AM 48.0 °F - 39.9 °F 74% 29.97 in 10.0 mi ENE 5.8 mph - N/A   Partly Cloudy
10:54 AM 51.1 °F - 41.0 °F 68% 29.94 in 10.0 mi East 5.8 mph - N/A   Mostly Cloudy
11:54 AM 52.0 °F - 42.1 °F 69% 29.91 in 10.0 mi ESE 5.8 mph - N/A   Mostly Cloudy
12:54 PM 54.0 °F - 43.0 °F 66% 29.91 in 10.0 mi East 4.6 mph - N/A   Mostly Cloudy
1:54 PM 53.1 °F - 43.0 °F 69% 29.89 in 10.0 mi East 4.6 mph - N/A   Mostly Cloudy
2:54 PM 53.1 °F - 42.1 °F 66% 29.87 in 10.0 mi ENE 5.8 mph - N/A   Mostly Cloudy
3:54 PM 52.0 °F - 42.1 °F 69% 29.86 in 10.0 mi ENE 5.8 mph - N/A   Clear
4:54 PM 50.0 °F - 39.9 °F 68% 29.85 in 10.0 mi North 3.5 mph - N/A   Clear
5:54 PM 41.0 °F 39.0 °F 37.0 °F 86% 29.87 in 10.0 mi South 3.5 mph - N/A   Clear
6:54 PM 44.1 °F 41.5 °F 39.9 °F 85% 29.87 in 9.0 mi NE 4.6 mph - N/A   Clear
7:54 PM 45.0 °F 41.8 °F 41.0 °F 86% 29.87 in 9.0 mi North 5.8 mph - N/A   Clear
8:54 PM 43.0 °F 39.5 °F 39.9 °F 89% 29.87 in 6.0 mi North 5.8 mph - N/A   Clear
9:54 PM 43.0 °F 39.5 °F 39.9 °F 89% 29.87 in 5.0 mi North 5.8 mph - N/A   Clear
10:54 PM 41.0 °F 37.1 °F 37.9 °F 89% 29.86 in 4.0 mi North 5.8 mph - N/A   Clear
11:54 PM 41.0 °F 38.0 °F 37.9 °F 89% 29.86 in 5.0 mi NNE 4.6 mph - N/A   Clear